{"data":{"norad_id":59650,"epoch":"2026-05-25T03:18:33.844608Z","epoch_age_seconds":53215,"freshness":"FRESH","line1":"1 59650U 24082V   26145.13789172  .00000108  00000+0  13434-4 0  9994","line2":"2 59650  43.0008  68.0717 0000750 266.7227  93.3538 15.27581464116704","mean_motion":15.27581464,"eccentricity":7.5e-5,"inclination_deg":43.0008,"raan_deg":68.0717,"arg_perigee_deg":266.7227,"mean_anomaly_deg":93.3538,"bstar":1.3434e-5,"rev_number":11670,"period_min":94.266658370502,"perigee_km":482.53012367206,"apogee_km":483.55930092891,"semimajor_km":6861.1817123005,"source":"CELESTRAK","updated_at":"2026-05-25T13:38:19.016388Z"}}